Terminal Aerodrome Forecast
Issued by NWS Greer, SC

Home | Current Version | Previous Version | Text Only | Print | Product List | Glossary On
Versions: 1 2 3 4 5 6 7 8 9 10 11 12 13 14 15 16 17 18 19 20 21 22 23 24 25 26 27 28 29 30 31 32 33 34 35 36 37 38 39 40 41 42 43 44 45 46 47 48 49 50
000
FTUS42 KGSP 272324
TAFCLT
TAF
KCLT 272324Z 2800/2824 24007KT P6SM SCT050 BKN200
      TEMPO 2802/2806 30015G30KT 3SM TSRA BR OVC040CB
     FM280600 26004KT P6SM SCT050 BKN200
     FM281500 24008G16KT P6SM SCT060 BKN150 PROB30 2818/2824 3SM
      TSRA OVC040CB=

USA.gov is the U.S. government's official web portal to all federal, state and local government web resources and services.